Time,TemperatureF,DewpointF,PressureIn,WindDirection,WindDirectionDegrees,WindSpeedMPH,WindSpeedGustMPH,Humidity,HourlyPrecipIn,Conditions,Clouds,dailyrainin,SolarRadiationWatts/m^2,SoftwareType,DateUTC
2013-04-16 00:03:00,75.0,71.0,-100.00,ESE,112,3.0,-999.0,85,0.00,,,-99.99,0.000000,,2013-04-16 04:03:00,
2013-04-16 00:12:00,75.0,70.0,-100.00,ESE,119,3.0,-999.0,86,0.00,,,-99.99,0.000000,,2013-04-16 04:12:00,
2013-04-16 00:23:00,75.0,70.0,-100.00,ESE,119,3.0,-999.0,86,0.00,,,-99.99,0.000000,,2013-04-16 04:23:00,
2013-04-16 00:33:00,74.0,71.0,-100.00,SE,141,2.0,-999.0,87,0.00,,,-99.99,0.000000,,2013-04-16 04:33:00,
2013-04-16 00:42:00,74.0,70.0,-100.00,SE,142,2.0,-999.0,88,0.00,,,-99.99,0.000000,,2013-04-16 04:42:00,
2013-04-16 00:53:00,74.0,70.0,-100.00,SE,142,2.0,-999.0,88,0.00,,,-99.99,0.000000,,2013-04-16 04:53:00,
2013-04-16 01:02:00,73.0,70.0,-100.00,SSE,147,1.0,-999.0,88,0.00,,,-99.99,0.000000,,2013-04-16 05:02:00,
2013-04-16 01:12:00,73.0,69.0,-100.00,SE,142,2.0,-999.0,89,0.00,,,-99.99,0.000000,,2013-04-16 05:12:00,
2013-04-16 01:22:00,73.0,69.0,-100.00,SE,142,2.0,-999.0,89,0.00,,,-99.99,0.000000,,2013-04-16 05:22:00,
2013-04-16 01:32:00,72.0,69.0,-100.00,East,91,2.0,-999.0,89,0.00,,,-99.99,0.000000,,2013-04-16 05:32:00,
2013-04-16 01:42:00,72.0,69.0,-100.00,ENE,77,3.0,-999.0,90,0.00,,,-99.99,0.000000,,2013-04-16 05:42:00,
2013-04-16 01:52:00,72.0,69.0,-100.00,ENE,77,3.0,-999.0,90,0.00,,,-99.99,0.000000,,2013-04-16 05:52:00,
2013-04-16 02:02:00,72.0,69.0,-100.00,ENE,70,2.0,-999.0,91,0.00,,,-99.99,0.000000,,2013-04-16 06:02:00,
2013-04-16 02:12:00,71.0,69.0,-100.00,ENE,65,3.0,-999.0,91,0.00,,,-99.99,0.000000,,2013-04-16 06:12:00,
2013-04-16 02:22:00,71.0,69.0,-100.00,ENE,65,3.0,-999.0,91,0.00,,,-99.99,0.000000,,2013-04-16 06:22:00,
2013-04-16 02:32:00,71.0,69.0,-100.00,NE,53,2.0,-999.0,91,0.00,,,-99.99,0.000000,,2013-04-16 06:32:00,
2013-04-16 02:42:00,71.0,68.0,-100.00,NNE,31,1.0,-999.0,91,0.00,,,-99.99,0.000000,,2013-04-16 06:42:00,
2013-04-16 02:52:00,71.0,68.0,-100.00,NNE,31,1.0,-999.0,91,0.00,,,-99.99,0.000000,,2013-04-16 06:52:00,
2013-04-16 03:02:00,71.0,68.0,-100.00,NE,46,3.0,-999.0,92,0.00,,,-99.99,0.000000,,2013-04-16 07:02:00,
2013-04-16 03:12:00,70.0,68.0,-100.00,NE,50,3.0,-999.0,92,0.00,,,-99.99,0.000000,,2013-04-16 07:12:00,
2013-04-16 03:22:00,70.0,68.0,-100.00,NE,50,3.0,-999.0,92,0.00,,,-99.99,0.000000,,2013-04-16 07:22:00,
2013-04-16 03:32:00,70.0,68.0,-100.00,ENE,57,3.0,-999.0,93,0.00,,,-99.99,0.000000,,2013-04-16 07:32:00,
2013-04-16 03:42:00,69.0,67.0,-100.00,NE,52,3.0,-999.0,92,0.00,,,-99.99,0.000000,,2013-04-16 07:42:00,
2013-04-16 03:53:00,69.0,67.0,-100.00,NE,52,3.0,-999.0,92,0.00,,,-99.99,0.000000,,2013-04-16 07:53:00,
2013-04-16 04:02:00,69.0,67.0,-100.00,ENE,58,4.0,-999.0,92,0.00,,,-99.99,0.000000,,2013-04-16 08:02:00,
2013-04-16 04:12:00,69.0,66.0,-100.00,ENE,60,4.0,-999.0,90,0.00,,,-99.99,0.000000,,2013-04-16 08:12:00,
2013-04-16 04:22:00,69.0,66.0,-100.00,ENE,60,4.0,-999.0,90,0.00,,,-99.99,0.000000,,2013-04-16 08:22:00,
2013-04-16 04:32:00,69.0,66.0,-100.00,ENE,62,4.0,-999.0,90,0.00,,,-99.99,0.000000,,2013-04-16 08:32:00,
2013-04-16 04:42:00,69.0,66.0,-100.00,ENE,59,4.0,-999.0,89,0.00,,,-99.99,0.000000,,2013-04-16 08:42:00,
2013-04-16 04:52:00,69.0,66.0,-100.00,ENE,59,4.0,-999.0,89,0.00,,,-99.99,0.000000,,2013-04-16 08:52:00,
2013-04-16 05:02:00,69.0,66.0,-100.00,ENE,64,4.0,-999.0,90,0.00,,,-99.99,0.000000,,2013-04-16 09:02:00,
2013-04-16 05:12:00,69.0,66.0,-100.00,ENE,67,3.0,-999.0,90,0.00,,,-99.99,0.000000,,2013-04-16 09:12:00,
2013-04-16 05:22:00,69.0,66.0,-100.00,ENE,67,3.0,-999.0,90,0.00,,,-99.99,0.000000,,2013-04-16 09:22:00,
2013-04-16 05:33:00,69.0,66.0,-100.00,ENE,76,3.0,-999.0,91,0.00,,,-99.99,0.000000,,2013-04-16 09:33:00,
2013-04-16 05:43:00,69.0,66.0,-100.00,ENE,71,5.0,-999.0,91,0.00,,,-99.99,0.000000,,2013-04-16 09:43:00,
2013-04-16 05:53:00,69.0,66.0,-100.00,ENE,71,5.0,-999.0,91,0.00,,,-99.99,0.000000,,2013-04-16 09:53:00,
2013-04-16 06:03:00,69.0,66.0,-100.00,ENE,62,5.0,-999.0,91,0.00,,,-99.99,0.000000,,2013-04-16 10:03:00,
2013-04-16 06:13:00,68.0,66.0,-100.00,ENE,68,4.0,-999.0,92,0.00,,,-99.99,0.000000,,2013-04-16 10:13:00,
2013-04-16 06:23:00,68.0,66.0,-100.00,ENE,68,4.0,-999.0,92,0.00,,,-99.99,0.000000,,2013-04-16 10:23:00,
2013-04-16 06:33:00,68.0,66.0,-100.00,East,81,5.0,-999.0,92,0.00,,,-99.99,0.000000,,2013-04-16 10:33:00,
2013-04-16 06:42:00,68.0,66.0,-100.00,East,80,4.0,-999.0,93,0.00,,,-99.99,0.000000,,2013-04-16 10:42:00,
2013-04-16 06:53:00,68.0,66.0,-100.00,East,80,4.0,-999.0,93,0.00,,,-99.99,0.000000,,2013-04-16 10:53:00,
2013-04-16 07:02:00,68.0,66.0,-100.00,ENE,63,4.0,-999.0,93,0.00,,,-99.99,0.000000,,2013-04-16 11:02:00,
2013-04-16 07:12:00,68.0,66.0,-100.00,ENE,65,4.0,-999.0,94,0.00,,,-99.99,1.500000,,2013-04-16 11:12:00,
2013-04-16 07:22:00,68.0,66.0,-100.00,ENE,65,4.0,-999.0,94,0.00,,,-99.99,1.500000,,2013-04-16 11:22:00,
2013-04-16 07:32:00,68.0,67.0,-100.00,ENE,65,4.0,-999.0,94,0.00,,,-99.99,9.200000,,2013-04-16 11:32:00,
2013-04-16 07:42:00,69.0,67.0,-100.00,ENE,69,5.0,-999.0,94,0.00,,,-99.99,36.200001,,2013-04-16 11:42:00,
2013-04-16 07:53:00,69.0,67.0,-100.00,ENE,69,5.0,-999.0,94,0.00,,,-99.99,36.200001,,2013-04-16 11:53:00,
2013-04-16 08:02:00,69.0,68.0,-100.00,ENE,72,5.0,-999.0,94,0.00,,,-99.99,82.500000,,2013-04-16 12:02:00,
2013-04-16 08:12:00,70.0,68.0,-100.00,ENE,67,6.0,-999.0,94,0.00,,,-99.99,127.699997,,2013-04-16 12:12:00,
2013-04-16 08:22:00,70.0,68.0,-100.00,ENE,67,6.0,-999.0,94,0.00,,,-99.99,127.699997,,2013-04-16 12:22:00,
2013-04-16 08:32:00,71.0,69.0,-100.00,ENE,67,6.0,-999.0,92,0.00,,,-99.99,177.100006,,2013-04-16 12:32:00,
2013-04-16 08:42:00,72.0,69.0,-100.00,ENE,71,7.0,-999.0,90,0.00,,,-99.99,229.899994,,2013-04-16 12:42:00,
2013-04-16 08:52:00,72.0,69.0,-100.00,ENE,71,7.0,-999.0,90,0.00,,,-99.99,229.899994,,2013-04-16 12:52:00,
2013-04-16 09:02:00,73.0,70.0,-100.00,ENE,68,8.0,-999.0,88,0.00,,,-99.99,284.700012,,2013-04-16 13:02:00,
2013-04-16 09:12:00,75.0,70.0,-100.00,ENE,70,10.0,-999.0,86,0.00,,,-99.99,341.799988,,2013-04-16 13:12:00,
2013-04-16 09:22:00,75.0,70.0,-100.00,ENE,70,10.0,-999.0,86,0.00,,,-99.99,341.799988,,2013-04-16 13:22:00,
2013-04-16 09:32:00,75.0,71.0,-100.00,ENE,76,10.0,-999.0,86,0.00,,,-99.99,375.700012,,2013-04-16 13:32:00,
2013-04-16 09:42:00,75.0,71.0,-100.00,East,81,8.0,-999.0,88,0.00,,,-99.99,262.000000,,2013-04-16 13:42:00,
2013-04-16 09:52:00,75.0,71.0,-100.00,East,81,8.0,-999.0,88,0.00,,,-99.99,262.000000,,2013-04-16 13:52:00,
2013-04-16 10:02:00,76.0,72.0,-100.00,East,84,7.0,-999.0,86,0.00,,,-99.99,309.600006,,2013-04-16 14:02:00,
2013-04-16 10:12:00,78.0,72.0,-100.00,East,84,9.0,-999.0,82,0.00,,,-99.99,490.100006,,2013-04-16 14:12:00,
2013-04-16 10:22:00,78.0,72.0,-100.00,East,84,9.0,-999.0,82,0.00,,,-99.99,490.100006,,2013-04-16 14:22:00,
2013-04-16 10:32:00,79.0,72.0,-100.00,East,87,8.0,-999.0,78,0.00,,,-99.99,456.299988,,2013-04-16 14:32:00,
2013-04-16 10:42:00,80.0,72.0,-100.00,East,96,7.0,-999.0,76,0.00,,,-99.99,573.000000,,2013-04-16 14:42:00,
2013-04-16 10:52:00,80.0,72.0,-100.00,East,96,7.0,-999.0,76,0.00,,,-99.99,573.000000,,2013-04-16 14:52:00,
2013-04-16 11:02:00,81.0,72.0,-100.00,East,89,7.0,-999.0,72,0.00,,,-99.99,680.299988,,2013-04-16 15:02:00,
2013-04-16 11:12:00,81.0,72.0,-100.00,ENE,68,9.0,-999.0,73,0.00,,,-99.99,453.399994,,2013-04-16 15:12:00,
2013-04-16 11:22:00,81.0,72.0,-100.00,ENE,68,9.0,-999.0,73,0.00,,,-99.99,453.399994,,2013-04-16 15:22:00,
2013-04-16 11:33:00,83.0,72.0,-100.00,East,84,8.0,-999.0,70,0.00,,,-99.99,808.000000,,2013-04-16 15:33:00,
2013-04-16 11:43:00,82.0,71.0,-100.00,East,81,9.0,-999.0,70,0.00,,,-99.99,396.799988,,2013-04-16 15:43:00,
2013-04-16 11:53:00,82.0,71.0,-100.00,East,81,9.0,-999.0,70,0.00,,,-99.99,396.799988,,2013-04-16 15:53:00,
2013-04-16 12:03:00,82.0,71.0,-100.00,East,80,8.0,-999.0,68,0.00,,,-99.99,743.000000,,2013-04-16 16:03:00,
2013-04-16 12:13:00,85.0,71.0,-100.00,East,98,7.0,-999.0,62,0.00,,,-99.99,945.000000,,2013-04-16 16:13:00,
2013-04-16 12:23:00,85.0,71.0,-100.00,East,98,7.0,-999.0,62,0.00,,,-99.99,945.000000,,2013-04-16 16:23:00,
2013-04-16 12:32:00,86.0,70.0,-100.00,ESE,106,7.0,-999.0,59,0.00,,,-99.99,924.000000,,2013-04-16 16:32:00,
2013-04-16 12:42:00,85.0,69.0,-100.00,East,88,7.0,-999.0,58,0.00,,,-99.99,573.200012,,2013-04-16 16:42:00,
2013-04-16 12:53:00,85.0,69.0,-100.00,East,88,7.0,-999.0,58,0.00,,,-99.99,573.200012,,2013-04-16 16:53:00,
2013-04-16 13:02:00,85.0,69.0,-100.00,ENE,74,8.0,-999.0,60,0.00,,,-99.99,691.400024,,2013-04-16 17:02:00,
2013-04-16 13:12:00,87.0,70.0,-100.00,East,87,8.0,-999.0,56,0.00,,,-99.99,1052.000000,,2013-04-16 17:12:00,
2013-04-16 13:22:00,87.0,70.0,-100.00,East,87,8.0,-999.0,56,0.00,,,-99.99,1052.000000,,2013-04-16 17:22:00,
2013-04-16 13:32:00,86.0,69.0,-100.00,East,85,7.0,-999.0,55,0.00,,,-99.99,780.000000,,2013-04-16 17:32:00,
2013-04-16 13:43:00,86.0,68.0,-100.00,East,85,7.0,-999.0,54,0.00,,,-99.99,606.200012,,2013-04-16 17:43:00,
2013-04-16 13:53:00,86.0,68.0,-100.00,East,85,7.0,-999.0,54,0.00,,,-99.99,606.200012,,2013-04-16 17:53:00,
2013-04-16 14:02:00,87.0,69.0,-100.00,East,92,6.0,-999.0,54,0.00,,,-99.99,592.500000,,2013-04-16 18:02:00,
2013-04-16 14:12:00,88.0,68.0,-100.00,East,100,6.0,-999.0,53,0.00,,,-99.99,786.000000,,2013-04-16 18:12:00,
2013-04-16 14:22:00,88.0,68.0,-100.00,East,100,6.0,-999.0,53,0.00,,,-99.99,786.000000,,2013-04-16 18:22:00,
2013-04-16 14:32:00,88.0,68.0,-100.00,ESE,106,7.0,-999.0,52,0.00,,,-99.99,646.299988,,2013-04-16 18:32:00,
2013-04-16 14:42:00,87.0,68.0,-100.00,ESE,115,6.0,-999.0,53,0.00,,,-99.99,692.700012,,2013-04-16 18:42:00,
2013-04-16 14:52:00,87.0,68.0,-100.00,ESE,115,6.0,-999.0,53,0.00,,,-99.99,692.700012,,2013-04-16 18:52:00,
2013-04-16 15:02:00,87.0,68.0,-100.00,East,97,5.0,-999.0,53,0.00,,,-99.99,407.299988,,2013-04-16 19:02:00,
2013-04-16 15:12:00,87.0,68.0,-100.00,East,95,5.0,-999.0,53,0.00,,,-99.99,219.899994,,2013-04-16 19:12:00,
2013-04-16 15:22:00,87.0,68.0,-100.00,East,95,5.0,-999.0,53,0.00,,,-99.99,219.899994,,2013-04-16 19:22:00,
2013-04-16 15:32:00,87.0,67.0,-100.00,East,91,6.0,-999.0,51,0.00,,,-99.99,757.000000,,2013-04-16 19:32:00,
2013-04-16 15:42:00,88.0,68.0,-100.00,ENE,73,8.0,-999.0,50,0.00,,,-99.99,519.599976,,2013-04-16 19:42:00,
2013-04-16 15:52:00,88.0,68.0,-100.00,ENE,73,8.0,-999.0,50,0.00,,,-99.99,519.599976,,2013-04-16 19:52:00,
2013-04-16 16:02:00,86.0,68.0,-100.00,ENE,69,9.0,-999.0,54,0.00,,,-99.99,378.100006,,2013-04-16 20:02:00,
2013-04-16 16:13:00,88.0,68.0,-100.00,East,80,7.0,-999.0,52,0.00,,,-99.99,743.000000,,2013-04-16 20:13:00,
2013-04-16 16:32:00,89.0,68.0,-100.00,ENE,71,8.0,-999.0,50,0.00,,,-99.99,664.799988,,2013-04-16 20:32:00,
2013-04-16 16:42:00,88.0,68.0,-100.00,ENE,74,10.0,-999.0,52,0.00,,,-99.99,673.799988,,2013-04-16 20:42:00,
2013-04-16 16:52:00,88.0,68.0,-100.00,ENE,74,10.0,-999.0,52,0.00,,,-99.99,673.799988,,2013-04-16 20:52:00,
2013-04-16 17:02:00,88.0,67.0,-100.00,ENE,78,9.0,-999.0,51,0.00,,,-99.99,610.000000,,2013-04-16 21:02:00,
2013-04-16 17:12:00,88.0,68.0,-100.00,East,90,8.0,-999.0,51,0.00,,,-99.99,573.200012,,2013-04-16 21:12:00,
2013-04-16 17:22:00,88.0,68.0,-100.00,East,90,8.0,-999.0,51,0.00,,,-99.99,573.200012,,2013-04-16 21:22:00,
2013-04-16 17:32:00,88.0,68.0,-100.00,East,84,9.0,-999.0,51,0.00,,,-99.99,522.099976,,2013-04-16 21:32:00,
2013-04-16 17:43:00,87.0,68.0,-100.00,East,85,9.0,-999.0,52,0.00,,,-99.99,385.899994,,2013-04-16 21:43:00,
2013-04-16 17:53:00,87.0,68.0,-100.00,East,85,9.0,-999.0,52,0.00,,,-99.99,385.899994,,2013-04-16 21:53:00,
2013-04-16 18:03:00,87.0,68.0,-100.00,East,83,10.0,-999.0,54,0.00,,,-99.99,418.299988,,2013-04-16 22:03:00,
2013-04-16 18:13:00,85.0,68.0,-100.00,East,82,11.0,-999.0,56,0.00,,,-99.99,171.199997,,2013-04-16 22:13:00,
2013-04-16 18:22:00,85.0,68.0,-100.00,East,82,11.0,-999.0,56,0.00,,,-99.99,171.199997,,2013-04-16 22:22:00,
2013-04-16 18:33:00,84.0,68.0,-100.00,East,89,8.0,-999.0,59,0.00,,,-99.99,137.800003,,2013-04-16 22:33:00,
2013-04-16 18:43:00,83.0,68.0,-100.00,East,80,10.0,-999.0,59,0.00,,,-99.99,193.000000,,2013-04-16 22:43:00,
2013-04-16 18:52:00,83.0,68.0,-100.00,East,80,10.0,-999.0,59,0.00,,,-99.99,193.000000,,2013-04-16 22:52:00,
2013-04-16 19:02:00,83.0,68.0,-100.00,East,82,9.0,-999.0,60,0.00,,,-99.99,185.800003,,2013-04-16 23:02:00,
2013-04-16 19:12:00,83.0,68.0,-100.00,East,85,9.0,-999.0,60,0.00,,,-99.99,137.100006,,2013-04-16 23:12:00,
2013-04-16 19:22:00,83.0,68.0,-100.00,East,85,9.0,-999.0,60,0.00,,,-99.99,137.100006,,2013-04-16 23:22:00,
2013-04-16 19:32:00,81.0,68.0,-100.00,East,82,9.0,-999.0,62,0.00,,,-99.99,75.099998,,2013-04-16 23:32:00,
2013-04-16 19:43:00,80.0,67.0,-100.00,East,84,11.0,-999.0,63,0.00,,,-99.99,48.400002,,2013-04-16 23:43:00,
2013-04-16 19:52:00,80.0,67.0,-100.00,East,84,11.0,-999.0,63,0.00,,,-99.99,48.400002,,2013-04-16 23:52:00,
2013-04-16 20:02:00,79.0,67.0,-100.00,ENE,76,10.0,-999.0,65,0.00,,,-99.99,15.400000,,2013-04-17 00:02:00,
2013-04-16 20:12:00,79.0,67.0,-100.00,East,80,9.0,-999.0,66,0.00,,,-99.99,3.300000,,2013-04-17 00:12:00,
2013-04-16 20:22:00,79.0,67.0,-100.00,East,80,9.0,-999.0,66,0.00,,,-99.99,3.300000,,2013-04-17 00:22:00,
2013-04-16 20:32:00,78.0,66.0,-100.00,East,81,9.0,-999.0,67,0.00,,,-99.99,0.300000,,2013-04-17 00:32:00,
2013-04-16 20:42:00,77.0,67.0,-100.00,East,81,8.0,-999.0,69,0.00,,,-99.99,0.000000,,2013-04-17 00:42:00,
2013-04-16 20:52:00,77.0,67.0,-100.00,East,81,8.0,-999.0,69,0.00,,,-99.99,0.000000,,2013-04-17 00:52:00,
2013-04-16 21:02:00,77.0,67.0,-100.00,East,81,9.0,-999.0,70,0.00,,,-99.99,0.000000,,2013-04-17 01:02:00,
2013-04-16 21:12:00,76.0,66.0,-100.00,East,80,10.0,-999.0,71,0.00,,,-99.99,0.000000,,2013-04-17 01:12:00,
2013-04-16 21:22:00,76.0,66.0,-100.00,East,80,10.0,-999.0,71,0.00,,,-99.99,0.000000,,2013-04-17 01:22:00,
2013-04-16 21:32:00,76.0,66.0,-100.00,East,81,9.0,-999.0,72,0.00,,,-99.99,0.000000,,2013-04-17 01:32:00,
2013-04-16 21:42:00,75.0,66.0,-100.00,East,85,8.0,-999.0,73,0.00,,,-99.99,0.000000,,2013-04-17 01:42:00,
2013-04-16 21:52:00,75.0,66.0,-100.00,East,85,8.0,-999.0,73,0.00,,,-99.99,0.000000,,2013-04-17 01:52:00,
2013-04-16 22:02:00,75.0,66.0,-100.00,East,82,8.0,-999.0,74,0.00,,,-99.99,0.000000,,2013-04-17 02:02:00,
2013-04-16 22:12:00,74.0,66.0,-100.00,East,80,7.0,-999.0,75,0.00,,,-99.99,0.000000,,2013-04-17 02:12:00,
2013-04-16 22:22:00,74.0,66.0,-100.00,East,80,7.0,-999.0,75,0.00,,,-99.99,0.000000,,2013-04-17 02:22:00,
2013-04-16 22:32:00,73.0,66.0,-100.00,East,82,5.0,-999.0,77,0.00,,,-99.99,0.000000,,2013-04-17 02:32:00,
2013-04-16 22:42:00,72.0,66.0,-100.00,ENE,78,4.0,-999.0,79,0.00,,,-99.99,0.000000,,2013-04-17 02:42:00,
2013-04-16 22:52:00,72.0,66.0,-100.00,ENE,78,4.0,-999.0,79,0.00,,,-99.99,0.000000,,2013-04-17 02:52:00,
2013-04-16 23:02:00,72.0,66.0,-100.00,East,83,6.0,-999.0,80,0.00,,,-99.99,0.000000,,2013-04-17 03:02:00,
2013-04-16 23:12:00,72.0,66.0,-100.00,ENE,78,6.0,-999.0,81,0.00,,,-99.99,0.000000,,2013-04-17 03:12:00,
2013-04-16 23:22:00,72.0,66.0,-100.00,ENE,78,6.0,-999.0,81,0.00,,,-99.99,0.000000,,2013-04-17 03:22:00,
2013-04-16 23:33:00,71.0,66.0,-100.00,East,84,5.0,-999.0,83,0.00,,,-99.99,0.000000,,2013-04-17 03:33:00,
2013-04-16 23:42:00,70.0,66.0,-100.00,ENE,76,4.0,-999.0,85,0.00,,,-99.99,0.000000,,2013-04-17 03:42:00,
2013-04-16 23:53:00,70.0,66.0,-100.00,ENE,76,4.0,-999.0,85,0.00,,,-99.99,0.000000,,2013-04-17 03:53:00,